Terminal Aerodrome Forecast
Issued by NWS

Home | Current Version | Previous Version | Text Only | Print | Product List | Glossary On
Versions: 1 2 3 4 5 6 7 8 9 10 11 12 13 14 15 16 17 18 19 20 21 22 23 24 25 26 27 28 29 30 31 32
000
FTAK31 PAFA 281732
TAFAMC
TAF
PAMC 281732Z 2818/2918 16003KT P6SM OVC060
     FM290000 11010KT 3SM -SN BR OVC035
     FM290400 06010KT 3SM -RASN BKN025 OVC035=

USA.gov is the U.S. government's official web portal to all federal, state and local government web resources and services.